Simultaneous Nadir Overpasses (SNOs) Predictions

Prediction of SNOs between METOP-A and TERRA Satellite Orbit:

Table of predicted SNOs for the next 14.0 days since TLE Epoch: 8/18/2012
Index Date (METOP-A) Time (METOP-A) METOP-A Lat,Lon Date (TERRA) Time (TERRA) TERRA Lat,Lon Distance(km) Time Diff (sec)
1 08/21/2012 12:51:08 81.31, 34.42 08/21/2012 12:51:20 81.31, 34.24 3.24 12
2 08/21/2012 13:41:47 -81.32,-157.64 08/21/2012 13:40:46 -81.32,-157.79 2.53 61
3 08/24/2012 08:25:31 81.31, 100.68 08/24/2012 08:25:36 81.32, 100.86 3.06 5
4 08/24/2012 09:16:10 -81.32, -91.38 08/24/2012 09:15:03 -81.31, -91.53 2.52 67
5 08/27/2012 03:09:12 -81.31, -0.51 08/27/2012 03:10:26 -81.30, -0.66 2.76 74
6 08/27/2012 03:59:52 81.31, 167.20 08/27/2012 03:59:51 81.32, 167.39 3.25 1
7 08/27/2012 04:50:31 -81.32, -24.84 08/27/2012 04:49:18 -81.32, -24.97 2.18 73
8 08/29/2012 22:43:34 -81.31, 65.92 08/29/2012 22:44:42 -81.30, 65.81 1.96 68
9 08/29/2012 23:34:14 81.31,-126.39 08/29/2012 23:34:08 81.30,-126.54 2.91 6
10 09/01/2012 18:17:56 -81.31, 132.23 09/01/2012 18:18:58 -81.30, 132.19 0.97 62




NCC Satellite Simultaneous Nadir Overpasses (SNOs) Prediction Service
